TimeCDT,TemperatureF,Dew PointF,Humidity,Sea Level PressureIn,VisibilityMPH,Wind Direction,Wind SpeedMPH,Gust SpeedMPH,PrecipitationIn,Events,Conditions,WindDirDegrees,DateUTC
12:52 AM,64.0,62.1,93,29.75,4.0,SW,12.7,-,0.01,Rain,Light Rain,230,2012-10-14 05:52:00
1:13 AM,64.4,62.6,94,29.73,2.5,SSW,6.9,-,0.02,Rain,Rain,210,2012-10-14 06:13:00
1:25 AM,64.4,62.6,94,29.72,3.0,SSW,8.1,-,0.06,Rain,Rain,200,2012-10-14 06:25:00
1:52 AM,64.0,62.1,93,29.72,3.0,SSW,8.1,-,0.13,Rain,Light Rain,210,2012-10-14 06:52:00
2:52 AM,63.0,62.1,97,29.70,4.0,SSW,6.9,-,0.00,,Overcast,200,2012-10-14 07:52:00
3:52 AM,62.1,61.0,96,29.67,4.0,South,3.5,-,N/A,,Overcast,170,2012-10-14 08:52:00
4:52 AM,62.1,61.0,96,29.66,3.0,SSE,6.9,-,N/A,,Mostly Cloudy,160,2012-10-14 09:52:00
5:03 AM,62.6,60.8,94,29.66,2.5,SSE,4.6,-,0.00,Rain,Light Rain,160,2012-10-14 10:03:00
5:23 AM,60.8,60.8,100,29.64,1.8,SE,3.5,-,0.01,Rain,Light Rain,130,2012-10-14 10:23:00
5:52 AM,61.0,60.1,97,29.63,1.8,ESE,5.8,-,0.08,Rain,Light Rain,120,2012-10-14 10:52:00
6:52 AM,61.0,60.1,97,29.57,1.2,SE,5.8,-,0.08,Rain,Rain,130,2012-10-14 11:52:00
7:06 AM,60.8,60.8,100,29.56,1.2,SE,8.1,-,0.02,Rain,Light Rain,130,2012-10-14 12:06:00
7:27 AM,60.8,59.0,94,29.55,1.2,SE,10.4,-,0.05,Rain,Light Rain,140,2012-10-14 12:27:00
7:52 AM,60.1,60.1,100,29.53,1.2,SE,8.1,-,0.06,Rain,Light Rain,140,2012-10-14 12:52:00
8:01 AM,60.8,59.0,94,29.54,1.8,SE,8.1,-,0.00,Rain,Light Rain,140,2012-10-14 13:01:00
8:52 AM,62.1,61.0,96,29.51,1.8,South,9.2,-,0.01,Rain,Light Rain,190,2012-10-14 13:52:00
9:28 AM,62.6,60.8,94,29.50,2.5,SSW,12.7,-,0.00,Rain,Light Rain,210,2012-10-14 14:28:00
9:52 AM,64.0,62.1,93,29.49,2.5,SW,17.3,-,0.01,Rain,Light Rain,220,2012-10-14 14:52:00
10:16 AM,64.4,60.8,88,29.50,9.0,SW,17.3,25.3,0.00,Rain,Light Rain,220,2012-10-14 15:16:00
10:52 AM,64.9,61.0,87,29.49,10.0,SW,24.2,29.9,0.00,,Overcast,220,2012-10-14 15:52:00
11:11 AM,66.2,60.8,83,29.49,10.0,SW,24.2,32.2,N/A,,Overcast,220,2012-10-14 16:11:00
11:52 AM,64.9,60.1,84,29.48,10.0,SW,20.7,29.9,N/A,,Overcast,220,2012-10-14 16:52:00
12:09 PM,66.2,60.8,83,29.46,10.0,SW,15.0,26.5,N/A,,Mostly Cloudy,220,2012-10-14 17:09:00
12:45 PM,64.4,60.8,88,29.44,2.5,SSW,11.5,19.6,0.01,Rain,Heavy Rain,210,2012-10-14 17:45:00
12:52 PM,64.0,61.0,90,29.44,3.0,SSW,15.0,-,0.05,Rain,Light Rain,200,2012-10-14 17:52:00
1:52 PM,66.9,60.1,79,29.41,10.0,WSW,12.7,19.6,0.00,,Mostly Cloudy,240,2012-10-14 18:52:00
2:52 PM,64.4,57.2,77,29.42,10.0,NW,15.0,24.2,N/A,Rain,Light Rain,310,2012-10-14 19:52:00
3:14 PM,51.8,48.2,88,29.43,10.0,NNE,13.8,24.2,N/A,,Overcast,20,2012-10-14 20:14:00
3:52 PM,53.1,50.0,89,29.46,10.0,NNE,5.8,-,N/A,,Overcast,20,2012-10-14 20:52:00
4:28 PM,51.8,48.2,88,29.49,5.0,NW,19.6,24.2,0.00,,Light Drizzle,320,2012-10-14 21:28:00
4:52 PM,50.0,46.0,86,29.50,8.0,NNW,16.1,26.5,0.00,,Light Drizzle,330,2012-10-14 21:52:00
5:01 PM,50.0,46.4,87,29.50,10.0,NNW,18.4,26.5,0.00,Rain,Light Rain,340,2012-10-14 22:01:00
5:52 PM,48.9,46.0,90,29.54,10.0,NW,17.3,24.2,0.01,Rain,Light Rain,320,2012-10-14 22:52:00
6:52 PM,48.9,46.0,90,29.58,10.0,NW,11.5,28.8,0.01,Rain,Light Rain,310,2012-10-14 23:52:00
7:52 PM,48.9,45.0,86,29.64,10.0,WNW,13.8,29.9,0.00,Rain,Light Rain,300,2012-10-15 00:52:00
8:52 PM,48.9,45.0,86,29.68,10.0,WNW,16.1,25.3,0.00,Rain,Light Rain,300,2012-10-15 01:52:00
9:06 PM,48.2,44.6,87,29.68,10.0,WNW,15.0,25.3,0.00,Rain,Light Rain,300,2012-10-15 02:06:00
9:52 PM,48.9,44.1,83,29.70,10.0,WNW,13.8,20.7,0.00,,Overcast,300,2012-10-15 02:52:00
10:52 PM,48.9,44.1,83,29.73,10.0,WNW,10.4,18.4,N/A,,Overcast,300,2012-10-15 03:52:00
11:52 PM,48.9,43.0,80,29.75,10.0,WNW,9.2,-,N/A,,Overcast,300,2012-10-15 04:52:00